B12HU UAAA-ZGGG

Flight info

Callsign B12HU
Flight time 4h 48m
Altitude 41000
Route PIGAL7E PIGAL M610 RULAD/K0872S1250 A460 XKC L888 SADAN/K0872S1370 Y1 OMBON W245 OVRAL B330 QP G586 PUNIR W45 IKAVO IKAVO8
Aircraft C700/M-SBDGHM1RWXY/LB2

Departure

Time 2026-04-25 04:06
Airport Almaty International Airport (UAAA)

Arrival

Time 2026-04-25 08:55
Airport Guangzhou Baiyun International Airport (ZGGG)
Time Latitude Longitude Altitude Speed Heading
2026-04-25 03:59 43.34853 77.02059 2220 ft 0 kts 184°
2026-04-25 04:00 43.34853 77.02058 2220 ft 0 kts 184°
2026-04-25 04:00 43.34832 77.02057 2220 ft 7 kts 184°
2026-04-25 04:00 43.34818 77.02055 2219 ft 2 kts 184°
2026-04-25 04:01 43.34789 77.02094 2221 ft 11 kts 93°
2026-04-25 04:01 43.34784 77.02178 2220 ft 16 kts 94°
2026-04-25 04:01 43.34775 77.02359 2225 ft 21 kts 94°
2026-04-25 04:01 43.34770 77.02460 2227 ft 6 kts 94°
2026-04-25 04:02 43.34770 77.02461 2228 ft 0 kts 94°
2026-04-25 04:03 43.34770 77.02463 2229 ft 1 kts 94°
2026-04-25 04:03 43.34768 77.02505 2229 ft 8 kts 93°
2026-04-25 04:03 43.34785 77.02615 2228 ft 14 kts 62°
2026-04-25 04:03 43.34907 77.02867 2224 ft 59 kts 55°
2026-04-25 04:04 43.35306 77.03646 2236 ft 136 kts 52°
2026-04-25 04:04 43.35699 77.04402 2253 ft 151 kts 54°
2026-04-25 04:04 43.36210 77.05369 2231 ft 13 kts 240°
2026-04-25 04:04 43.36370 77.06219 2228 ft 0 kts 239°
2026-04-25 04:05 43.35934 77.04952 2226 ft 378 kts 237°
2026-04-25 04:05 43.34747 77.02541 2229 ft 0 kts 42°
2026-04-25 04:05 43.34833 77.02716 2227 ft 65 kts 56°
2026-04-25 04:05 43.35075 77.03202 2229 ft 119 kts 56°
2026-04-25 04:06 43.35680 77.04376 2431 ft 170 kts 54°
2026-04-25 04:06 43.36375 77.05756 3344 ft 186 kts 58°
2026-04-25 04:06 43.37097 77.07350 4148 ft 205 kts 58°
2026-04-25 04:06 43.37895 77.08999 5284 ft 214 kts 56°
2026-04-25 04:07 43.39090 77.11427 6333 ft 249 kts 56°
2026-04-25 04:07 43.39761 77.12799 6842 ft 267 kts 56°
2026-04-25 04:07 43.40838 77.15006 7741 ft 283 kts 56°
2026-04-25 04:07 43.41941 77.17270 8901 ft 291 kts 56°
2026-04-25 04:08 43.43086 77.19616 9986 ft 301 kts 55°
2026-04-25 04:08 43.44712 77.22952 10913 ft 334 kts 55°
2026-04-25 04:08 43.46054 77.25711 11476 ft 361 kts 55°
2026-04-25 04:08 43.47000 77.27658 12012 ft 371 kts 54°
2026-04-25 04:09 43.48434 77.30618 13111 ft 381 kts 54°
2026-04-25 04:09 43.49968 77.33772 13179 ft 408 kts 54°
2026-04-25 04:09 43.51537 77.37013 13182 ft 405 kts 54°
2026-04-25 04:09 43.53087 77.40227 13181 ft 402 kts 54°
2026-04-25 04:10 43.54633 77.43426 13178 ft 403 kts 54°
2026-04-25 04:10 43.56165 77.46656 13175 ft 405 kts 57°
2026-04-25 04:10 43.57325 77.50197 13167 ft 409 kts 69°
2026-04-25 04:10 43.58072 77.55223 14228 ft 390 kts 84°
2026-04-25 04:11 43.58111 77.61476 16005 ft 400 kts 90°
2026-04-25 04:11 43.58051 77.65338 16973 ft 406 kts 90°
2026-04-25 04:11 43.57972 77.70556 18206 ft 414 kts 90°
2026-04-25 04:12 43.57941 77.73216 18763 ft 418 kts 90°
2026-04-25 04:12 43.57892 77.77244 19557 ft 423 kts 90°
2026-04-25 04:12 43.57834 77.81323 20322 ft 429 kts 90°
2026-04-25 04:12 43.57771 77.85447 21054 ft 434 kts 91°
2026-04-25 04:13 43.57709 77.89624 21773 ft 438 kts 91°
2026-04-25 04:13 43.57647 77.93841 22467 ft 443 kts 91°
2026-04-25 04:13 43.57559 77.99540 23377 ft 450 kts 91°
2026-04-25 04:13 43.57512 78.02419 23817 ft 453 kts 91°
2026-04-25 04:14 43.57441 78.06769 24370 ft 458 kts 91°
2026-04-25 04:14 43.57369 78.11164 24914 ft 462 kts 91°
2026-04-25 04:14 43.57296 78.15622 25464 ft 467 kts 92°
2026-04-25 04:14 43.57219 78.20106 26003 ft 471 kts 92°
2026-04-25 04:15 43.57138 78.24640 26522 ft 476 kts 92°
2026-04-25 04:15 43.57056 78.29210 27032 ft 480 kts 92°
2026-04-25 04:15 43.56943 78.35381 27686 ft 486 kts 92°
2026-04-25 04:15 43.56885 78.38484 28008 ft 489 kts 92°
2026-04-25 04:16 43.56794 78.43184 28480 ft 493 kts 93°
2026-04-25 04:16 43.56702 78.47911 28936 ft 497 kts 93°
2026-04-25 04:16 43.56606 78.52691 29379 ft 501 kts 93°
2026-04-25 04:16 43.56509 78.57499 29836 ft 505 kts 93°
2026-04-25 04:17 43.56407 78.62352 30284 ft 509 kts 93°
2026-04-25 04:17 43.56303 78.67239 30655 ft 513 kts 94°
2026-04-25 04:17 43.56197 78.72163 30995 ft 517 kts 94°
2026-04-25 04:17 43.56088 78.77104 31481 ft 517 kts 94°
2026-04-25 04:18 43.55977 78.82044 31948 ft 517 kts 94°
2026-04-25 04:18 43.55863 78.86992 32394 ft 518 kts 94°
2026-04-25 04:18 43.55747 78.91940 32853 ft 518 kts 94°
2026-04-25 04:18 43.55629 78.96894 33302 ft 518 kts 95°
2026-04-25 04:19 43.55509 79.01844 33733 ft 518 kts 95°
2026-04-25 04:19 43.55386 79.06795 34120 ft 518 kts 95°
2026-04-25 04:19 43.55220 79.13423 34490 ft 521 kts 95°
2026-04-25 04:19 43.55135 79.16729 34759 ft 519 kts 95°
2026-04-25 04:20 43.55006 79.21696 35127 ft 518 kts 95°
2026-04-25 04:20 43.54876 79.26634 35474 ft 517 kts 95°
2026-04-25 04:20 43.54742 79.31576 35810 ft 516 kts 95°
2026-04-25 04:20 43.54607 79.36511 36127 ft 515 kts 95°
2026-04-25 04:21 43.54471 79.41430 36427 ft 515 kts 95°
2026-04-25 04:21 43.54333 79.46339 36683 ft 514 kts 95°
2026-04-25 04:21 43.54192 79.51260 36904 ft 514 kts 95°
2026-04-25 04:21 43.54049 79.56167 37165 ft 513 kts 95°
2026-04-25 04:22 43.53905 79.61076 37422 ft 513 kts 94°
2026-04-25 04:22 43.53759 79.65970 37665 ft 512 kts 94°
2026-04-25 04:22 43.53610 79.70861 37891 ft 512 kts 94°
2026-04-25 04:22 43.53460 79.75742 38116 ft 511 kts 94°
2026-04-25 04:23 43.53308 79.80620 38327 ft 511 kts 94°
2026-04-25 04:23 43.53154 79.85503 38492 ft 511 kts 94°
2026-04-25 04:23 43.52998 79.90384 38676 ft 511 kts 94°
2026-04-25 04:23 43.52840 79.95264 38859 ft 510 kts 94°
2026-04-25 04:24 43.52680 80.00130 39003 ft 510 kts 94°
2026-04-25 04:24 43.52518 80.05003 39126 ft 510 kts 94°
2026-04-25 04:24 43.52354 80.09869 39242 ft 510 kts 94°
2026-04-25 04:24 43.52188 80.14737 39349 ft 510 kts 94°
2026-04-25 04:25 43.52020 80.19601 39431 ft 510 kts 94°
2026-04-25 04:25 43.51678 80.29348 39617 ft 510 kts 94°
2026-04-25 04:26 43.51327 80.39083 39793 ft 510 kts 94°
2026-04-25 04:26 43.50969 80.48811 39958 ft 510 kts 94°
2026-04-25 04:27 43.50602 80.58536 40125 ft 509 kts 95°
2026-04-25 04:27 43.49502 80.68071 40235 ft 504 kts 110°
2026-04-25 04:28 43.46496 80.76624 40351 ft 494 kts 129°
2026-04-25 04:28 43.41973 80.83504 40469 ft 483 kts 143°
2026-04-25 04:29 43.37024 80.89737 40592 ft 483 kts 143°
2026-04-25 04:29 43.32078 80.95964 40644 ft 483 kts 143°
2026-04-25 04:30 43.27133 81.02177 40728 ft 482 kts 143°
2026-04-25 04:30 43.22188 81.08370 40773 ft 483 kts 143°
2026-04-25 04:31 43.17236 81.14560 40836 ft 483 kts 143°
2026-04-25 04:31 43.12280 81.20740 40931 ft 482 kts 143°
2026-04-25 04:32 43.07325 81.26905 40994 ft 482 kts 143°
2026-04-25 04:32 43.02368 81.33058 41045 ft 483 kts 143°
2026-04-25 04:33 42.97404 81.39207 41126 ft 483 kts 143°
2026-04-25 04:33 42.92433 81.45348 41202 ft 483 kts 143°
2026-04-25 04:34 42.87466 81.51477 41248 ft 483 kts 143°
2026-04-25 04:34 42.82492 81.57587 41328 ft 482 kts 143°
2026-04-25 04:35 42.77518 81.63699 41326 ft 483 kts 143°
2026-04-25 04:35 42.72521 81.69811 41317 ft 484 kts 143°
2026-04-25 04:36 42.67478 81.75814 41361 ft 481 kts 146°
2026-04-25 04:36 42.62300 81.81516 41359 ft 479 kts 146°
2026-04-25 04:37 42.57139 81.87254 41334 ft 482 kts 146°
2026-04-25 04:37 42.51932 81.92984 41329 ft 484 kts 146°
2026-04-25 04:38 42.46713 81.98741 41310 ft 486 kts 146°
2026-04-25 04:38 42.41493 82.04485 41304 ft 482 kts 146°
2026-04-25 04:39 42.36278 82.10186 41296 ft 484 kts 147°
2026-04-25 04:39 42.31057 82.15913 41221 ft 484 kts 146°
2026-04-25 04:40 42.25841 82.21605 41211 ft 482 kts 147°
2026-04-25 04:40 42.20628 82.27287 41216 ft 484 kts 146°
2026-04-25 04:41 42.15391 82.32986 41174 ft 485 kts 146°
2026-04-25 04:41 42.10139 82.38684 41128 ft 486 kts 146°
2026-04-25 04:42 42.04877 82.44388 41117 ft 487 kts 146°
2026-04-25 04:42 41.99567 82.50117 41096 ft 496 kts 146°
2026-04-25 04:43 41.94148 82.55966 41061 ft 506 kts 146°
2026-04-25 04:43 41.88625 82.61907 41075 ft 511 kts 146°
2026-04-25 04:44 41.83112 82.67828 41060 ft 507 kts 147°
2026-04-25 04:44 41.77643 82.73683 41043 ft 503 kts 147°
2026-04-25 04:45 41.72191 82.79508 41031 ft 502 kts 147°
2026-04-25 04:45 41.67076 82.85944 41026 ft 514 kts 134°
2026-04-25 04:46 41.63047 82.93921 41032 ft 522 kts 127°
2026-04-25 04:46 41.59105 83.02063 41027 ft 522 kts 127°
2026-04-25 04:47 41.55179 83.10164 41015 ft 519 kts 127°
2026-04-25 04:47 41.51266 83.18212 41012 ft 517 kts 127°
2026-04-25 04:48 41.47369 83.26207 41004 ft 515 kts 127°
2026-04-25 04:48 41.43468 83.34188 41006 ft 516 kts 127°
2026-04-25 04:49 41.39539 83.42205 41005 ft 518 kts 127°
2026-04-25 04:49 41.35601 83.50222 41006 ft 519 kts 127°
2026-04-25 04:50 41.31647 83.58248 41006 ft 521 kts 127°
2026-04-25 04:50 41.27676 83.66290 41008 ft 521 kts 127°
2026-04-25 04:51 41.23707 83.74305 41004 ft 519 kts 127°
2026-04-25 04:51 41.19752 83.82273 41003 ft 517 kts 127°
2026-04-25 04:52 41.15806 83.90198 41003 ft 516 kts 127°
2026-04-25 04:52 41.11851 83.98125 41005 ft 515 kts 127°
2026-04-25 04:53 41.07910 84.06001 41005 ft 514 kts 127°
2026-04-25 04:53 41.03957 84.13883 40998 ft 513 kts 127°
2026-04-25 04:54 41.00008 84.21734 40995 ft 515 kts 127°
2026-04-25 04:54 40.96029 84.29626 40995 ft 517 kts 128°
2026-04-25 04:55 40.92032 84.37533 40993 ft 519 kts 128°
2026-04-25 04:55 40.88026 84.45440 40992 ft 518 kts 128°
2026-04-25 04:56 40.84030 84.53307 40990 ft 515 kts 128°
2026-04-25 04:56 40.80053 84.61122 40988 ft 513 kts 128°
2026-04-25 04:57 40.76071 84.68921 40977 ft 514 kts 128°
2026-04-25 04:57 40.72066 84.76750 40981 ft 518 kts 128°
2026-04-25 04:58 40.68026 84.84629 40981 ft 520 kts 128°
2026-04-25 04:58 40.63998 84.92463 40979 ft 518 kts 128°
2026-04-25 04:59 40.59966 85.00283 40973 ft 515 kts 128°
2026-04-25 04:59 40.55954 85.08047 40966 ft 513 kts 128°
2026-04-25 05:00 40.51951 85.15773 40968 ft 513 kts 128°
2026-04-25 05:00 40.47925 85.23524 40973 ft 515 kts 128°
2026-04-25 05:01 40.43887 85.31279 40977 ft 517 kts 128°
2026-04-25 05:01 40.39829 85.39054 40980 ft 519 kts 128°
2026-04-25 05:02 40.35759 85.46834 40970 ft 517 kts 128°
2026-04-25 05:02 40.31704 85.54563 40970 ft 514 kts 128°
2026-04-25 05:03 40.27670 85.62236 40967 ft 512 kts 128°
2026-04-25 05:03 40.23631 85.69896 40970 ft 513 kts 128°
2026-04-25 05:04 40.19569 85.77583 40977 ft 516 kts 128°
2026-04-25 05:04 40.15482 85.85298 40971 ft 518 kts 128°
2026-04-25 05:05 40.11383 85.93018 40982 ft 518 kts 128°
2026-04-25 05:05 40.07553 86.00961 40975 ft 521 kts 118°
2026-04-25 05:06 40.05015 86.09797 40978 ft 520 kts 112°
2026-04-25 05:06 40.02595 86.18669 40976 ft 520 kts 112°
2026-04-25 05:07 40.00171 86.27552 40982 ft 522 kts 112°
2026-04-25 05:07 39.97733 86.36453 40976 ft 523 kts 112°
2026-04-25 05:08 39.95277 86.45378 40979 ft 524 kts 112°
2026-04-25 05:08 39.92815 86.54306 40978 ft 526 kts 112°
2026-04-25 05:09 39.90346 86.63217 40987 ft 523 kts 112°
2026-04-25 05:09 39.88217 86.70886 40983 ft 520 kts 112°
2026-04-25 05:10 39.85774 86.79645 40977 ft 519 kts 112°
2026-04-25 05:10 39.83698 86.87072 40979 ft 520 kts 112°
2026-04-25 05:11 39.81696 86.94212 40979 ft 522 kts 112°
2026-04-25 05:11 39.79863 87.00730 40973 ft 523 kts 112°
2026-04-25 05:12 39.76121 87.13994 40961 ft 521 kts 112°
2026-04-25 05:12 39.73813 87.22138 40957 ft 519 kts 112°
2026-04-25 05:13 39.71422 87.30550 40949 ft 518 kts 112°
2026-04-25 05:13 39.68910 87.39356 40959 ft 518 kts 112°
2026-04-25 05:14 39.66406 87.48110 40959 ft 519 kts 112°
2026-04-25 05:15 39.62623 87.61273 40952 ft 519 kts 112°
2026-04-25 05:15 39.60098 87.70020 40954 ft 519 kts 112°
2026-04-25 05:16 39.57569 87.78757 40945 ft 519 kts 112°
2026-04-25 05:16 39.55032 87.87488 40944 ft 518 kts 112°
2026-04-25 05:17 39.52493 87.96203 40940 ft 518 kts 112°
2026-04-25 05:17 39.49949 88.04903 40935 ft 518 kts 112°
2026-04-25 05:18 39.47400 88.13591 40934 ft 517 kts 112°
2026-04-25 05:18 39.44851 88.22250 40933 ft 516 kts 112°
2026-04-25 05:19 39.42295 88.30907 40931 ft 515 kts 112°
2026-04-25 05:19 39.39736 88.39544 40930 ft 517 kts 112°
2026-04-25 05:20 39.37157 88.48222 40934 ft 519 kts 112°
2026-04-25 05:20 39.34566 88.56912 40939 ft 520 kts 112°
2026-04-25 05:21 39.31967 88.65603 40939 ft 519 kts 112°
2026-04-25 05:21 39.29369 88.74257 40941 ft 518 kts 112°
2026-04-25 05:22 39.26769 88.82896 40943 ft 517 kts 112°
2026-04-25 05:22 39.24165 88.91515 40944 ft 516 kts 112°
2026-04-25 05:23 39.21565 89.00098 40948 ft 515 kts 112°
2026-04-25 05:23 39.18960 89.08669 40972 ft 514 kts 112°
2026-04-25 05:24 39.16355 89.17212 40969 ft 513 kts 112°
2026-04-25 05:24 39.13736 89.25772 40980 ft 515 kts 112°
2026-04-25 05:25 39.11106 89.34346 41018 ft 516 kts 112°
2026-04-25 05:25 39.08459 89.42945 41029 ft 518 kts 112°
2026-04-25 05:26 39.05806 89.51540 41029 ft 517 kts 112°
2026-04-25 05:26 39.03154 89.60103 41035 ft 516 kts 112°
2026-04-25 05:27 39.00503 89.68637 41053 ft 514 kts 112°
2026-04-25 05:27 38.97850 89.77143 41058 ft 514 kts 112°
2026-04-25 05:28 38.95203 89.85626 41056 ft 513 kts 113°
2026-04-25 05:28 38.92535 89.94117 41073 ft 515 kts 113°
2026-04-25 05:29 38.89860 90.02635 41086 ft 516 kts 113°
2026-04-25 05:29 38.87171 90.11150 41086 ft 515 kts 113°
2026-04-25 05:30 38.84483 90.19653 41092 ft 514 kts 113°
2026-04-25 05:30 38.81792 90.28126 41092 ft 514 kts 113°
2026-04-25 05:31 38.79099 90.36588 41096 ft 513 kts 113°
2026-04-25 05:31 38.76405 90.45027 41104 ft 513 kts 113°
2026-04-25 05:32 38.73705 90.53462 41111 ft 512 kts 113°
2026-04-25 05:32 38.71002 90.61880 41111 ft 512 kts 113°
2026-04-25 05:33 38.68305 90.70286 41111 ft 512 kts 112°
2026-04-25 05:33 38.65917 90.78874 41089 ft 513 kts 110°
2026-04-25 05:34 38.63525 90.87422 41076 ft 511 kts 110°
2026-04-25 05:34 38.61138 90.95959 41054 ft 510 kts 110°
2026-04-25 05:35 38.58749 91.04462 41056 ft 509 kts 110°
2026-04-25 05:35 38.56358 91.12945 41038 ft 509 kts 110°
2026-04-25 05:36 38.53957 91.21443 41028 ft 511 kts 110°
2026-04-25 05:36 38.51538 91.29972 41012 ft 512 kts 110°
2026-04-25 05:37 38.49105 91.38523 41003 ft 514 kts 110°
2026-04-25 05:37 38.46664 91.47077 41004 ft 513 kts 111°
2026-04-25 05:38 38.44224 91.55598 40991 ft 511 kts 111°
2026-04-25 05:38 38.41788 91.64079 40988 ft 509 kts 111°
2026-04-25 05:39 38.39354 91.72522 40979 ft 507 kts 111°
2026-04-25 05:39 38.36922 91.80936 40978 ft 507 kts 111°
2026-04-25 05:40 38.34479 91.89361 40977 ft 509 kts 111°
2026-04-25 05:40 38.32019 91.97818 40979 ft 511 kts 111°
2026-04-25 05:41 38.29543 92.06301 40981 ft 512 kts 111°
2026-04-25 05:41 38.27063 92.14774 40985 ft 511 kts 111°
2026-04-25 05:42 38.24583 92.23218 40981 ft 510 kts 111°
2026-04-25 05:42 38.22107 92.31625 40986 ft 508 kts 111°
2026-04-25 05:43 38.19630 92.40006 40985 ft 507 kts 111°
2026-04-25 05:43 38.17149 92.48374 40983 ft 508 kts 111°
2026-04-25 05:44 38.14258 92.56506 40979 ft 509 kts 117°
2026-04-25 05:44 38.11223 92.64658 40980 ft 512 kts 116°
2026-04-25 05:45 38.08179 92.72845 40985 ft 513 kts 117°
2026-04-25 05:45 38.05129 92.80996 40984 ft 512 kts 117°
2026-04-25 05:46 38.02098 92.89097 40981 ft 510 kts 117°
2026-04-25 05:46 37.99053 92.97198 40977 ft 508 kts 117°
2026-04-25 05:47 37.96020 93.05258 40977 ft 508 kts 117°
2026-04-25 05:47 37.92972 93.13327 40972 ft 509 kts 117°
2026-04-25 05:48 37.89914 93.21408 40962 ft 510 kts 117°
2026-04-25 05:48 37.86850 93.29479 40962 ft 509 kts 117°
2026-04-25 05:49 37.83789 93.37524 40957 ft 508 kts 117°
2026-04-25 05:49 37.80724 93.45556 40957 ft 507 kts 117°
2026-04-25 05:50 37.77660 93.53567 40954 ft 507 kts 117°
2026-04-25 05:50 37.74593 93.61563 40953 ft 506 kts 117°
2026-04-25 05:51 37.71527 93.69536 40953 ft 506 kts 117°
2026-04-25 05:51 37.68451 93.77514 40952 ft 506 kts 117°
2026-04-25 05:52 37.65373 93.85477 40946 ft 510 kts 117°
2026-04-25 05:52 37.62243 93.93554 40950 ft 517 kts 118°
2026-04-25 05:53 37.59078 94.01703 40956 ft 518 kts 118°
2026-04-25 05:53 37.55920 94.09809 40953 ft 514 kts 118°
2026-04-25 05:54 37.52778 94.17852 40948 ft 511 kts 118°
2026-04-25 05:54 37.48059 94.29895 40947 ft 514 kts 118°
2026-04-25 05:55 37.44887 94.37969 40949 ft 517 kts 118°
2026-04-25 05:55 37.41696 94.46064 40954 ft 517 kts 118°
2026-04-25 05:56 37.38509 94.54130 40937 ft 515 kts 118°
2026-04-25 05:56 37.35331 94.62154 40942 ft 513 kts 118°
2026-04-25 05:57 37.32159 94.70139 40943 ft 511 kts 118°
2026-04-25 05:57 37.28980 94.78125 40943 ft 512 kts 119°
2026-04-25 05:58 37.25788 94.86121 40945 ft 514 kts 119°
2026-04-25 05:58 37.22583 94.94130 40946 ft 515 kts 119°
2026-04-25 05:59 37.19366 95.02148 40949 ft 517 kts 119°
2026-04-25 05:59 37.16140 95.10170 40950 ft 516 kts 119°
2026-04-25 06:00 37.12908 95.18187 40947 ft 514 kts 119°
2026-04-25 06:00 37.09694 95.26138 40938 ft 512 kts 119°
2026-04-25 06:01 37.06488 95.34048 40937 ft 510 kts 118°
2026-04-25 06:01 37.03281 95.41944 40936 ft 510 kts 118°
2026-04-25 06:02 37.00057 95.49861 40928 ft 512 kts 118°
2026-04-25 06:02 36.96904 95.57855 40931 ft 515 kts 117°
2026-04-25 06:03 36.93761 95.65889 40923 ft 515 kts 118°
2026-04-25 06:03 36.90583 95.73887 40919 ft 514 kts 117°
2026-04-25 06:04 36.87435 95.81880 40913 ft 513 kts 118°
2026-04-25 06:04 36.84267 95.89838 40895 ft 513 kts 118°
2026-04-25 06:05 36.81090 95.97839 40902 ft 519 kts 118°
2026-04-25 06:05 36.77862 96.05923 40901 ft 522 kts 118°
2026-04-25 06:06 36.74664 96.14015 40896 ft 520 kts 117°
2026-04-25 06:06 36.71478 96.22061 40894 ft 518 kts 118°
2026-04-25 06:07 36.68289 96.30079 40883 ft 517 kts 118°
2026-04-25 06:07 36.65105 96.38080 40883 ft 517 kts 118°
2026-04-25 06:08 36.61904 96.46091 40880 ft 518 kts 118°
2026-04-25 06:08 36.58685 96.54137 40886 ft 521 kts 118°
2026-04-25 06:09 36.55447 96.62219 40881 ft 525 kts 117°
2026-04-25 06:09 36.52280 96.70372 40873 ft 524 kts 117°
2026-04-25 06:10 36.49072 96.78469 40872 ft 522 kts 118°
2026-04-25 06:10 36.45903 96.86517 40876 ft 521 kts 117°
2026-04-25 06:11 36.42679 96.94653 40896 ft 528 kts 117°
2026-04-25 06:11 36.39428 97.02849 40888 ft 531 kts 117°
2026-04-25 06:12 36.36191 97.10984 40889 ft 527 kts 117°
2026-04-25 06:12 36.32941 97.19131 40890 ft 524 kts 117°
2026-04-25 06:13 36.29714 97.27202 40885 ft 524 kts 117°
2026-04-25 06:14 36.24840 97.39353 40879 ft 528 kts 117°
2026-04-25 06:14 36.21565 97.47490 40905 ft 530 kts 117°
2026-04-25 06:15 36.18289 97.55613 40908 ft 528 kts 118°
2026-04-25 06:15 36.15016 97.63724 40895 ft 526 kts 116°
2026-04-25 06:16 36.11886 97.71868 40893 ft 524 kts 116°
2026-04-25 06:16 36.08737 97.79965 40890 ft 522 kts 116°
2026-04-25 06:17 36.05614 97.88061 40891 ft 524 kts 116°
2026-04-25 06:17 36.02458 97.96153 40905 ft 526 kts 116°
2026-04-25 06:18 35.99286 98.04315 40912 ft 529 kts 116°
2026-04-25 06:18 35.96095 98.12475 40924 ft 527 kts 116°
2026-04-25 06:19 35.92923 98.20581 40940 ft 523 kts 116°
2026-04-25 06:19 35.89773 98.28604 40936 ft 520 kts 116°
2026-04-25 06:20 35.86620 98.36617 40972 ft 522 kts 116°
2026-04-25 06:20 35.83433 98.44694 40979 ft 527 kts 116°
2026-04-25 06:21 35.80234 98.52784 40990 ft 527 kts 116°
2026-04-25 06:21 35.77031 98.60865 40990 ft 525 kts 116°
2026-04-25 06:22 35.73832 98.68911 40997 ft 523 kts 116°
2026-04-25 06:22 35.70636 98.76931 41005 ft 524 kts 116°
2026-04-25 06:23 35.67425 98.84972 41001 ft 525 kts 116°
2026-04-25 06:23 35.64211 98.92998 41004 ft 524 kts 116°
2026-04-25 06:24 35.60994 99.01012 40999 ft 523 kts 116°
2026-04-25 06:24 35.57778 99.09006 40998 ft 523 kts 116°
2026-04-25 06:25 35.54559 99.16984 41010 ft 522 kts 116°
2026-04-25 06:25 35.51344 99.24937 41004 ft 521 kts 116°
2026-04-25 06:26 35.48119 99.32893 41000 ft 522 kts 116°
2026-04-25 06:26 35.44880 99.40866 40986 ft 524 kts 116°
2026-04-25 06:27 35.41622 99.48864 40983 ft 527 kts 116°
2026-04-25 06:27 35.38343 99.56894 40970 ft 528 kts 116°
2026-04-25 06:28 35.35065 99.64904 40947 ft 525 kts 117°
2026-04-25 06:28 35.31803 99.72856 40944 ft 522 kts 117°
2026-04-25 06:29 35.28550 99.80767 40942 ft 521 kts 117°
2026-04-25 06:29 35.25290 99.88670 40932 ft 522 kts 116°
2026-04-25 06:30 35.22023 99.96581 40937 ft 522 kts 117°
2026-04-25 06:30 35.18749 100.04482 40923 ft 522 kts 117°
2026-04-25 06:31 35.15470 100.12380 40924 ft 522 kts 117°
2026-04-25 06:31 35.12189 100.20266 40919 ft 523 kts 117°
2026-04-25 06:32 35.08891 100.28169 40930 ft 523 kts 116°
2026-04-25 06:32 35.05590 100.36064 40914 ft 523 kts 117°
2026-04-25 06:33 35.02292 100.43936 40929 ft 522 kts 117°
2026-04-25 06:33 34.98993 100.51784 40938 ft 521 kts 117°
2026-04-25 06:34 34.95684 100.59647 40961 ft 520 kts 117°
2026-04-25 06:34 34.92382 100.67469 40947 ft 521 kts 117°
2026-04-25 06:35 34.89070 100.75303 40971 ft 521 kts 116°
2026-04-25 06:35 34.85736 100.83155 40975 ft 524 kts 117°
2026-04-25 06:36 34.82389 100.91031 40978 ft 525 kts 117°
2026-04-25 06:36 34.79051 100.98873 40970 ft 522 kts 117°
2026-04-25 06:37 34.75711 101.06685 40976 ft 520 kts 117°
2026-04-25 06:37 34.72384 101.14475 40967 ft 520 kts 117°
2026-04-25 06:38 34.69035 101.22265 40962 ft 521 kts 117°
2026-04-25 06:38 34.65685 101.30067 40973 ft 523 kts 117°
2026-04-25 06:39 34.62309 101.37896 40978 ft 525 kts 117°
2026-04-25 06:39 34.58921 101.45742 40986 ft 527 kts 117°
2026-04-25 06:40 34.55522 101.53591 40988 ft 526 kts 117°
2026-04-25 06:40 34.52132 101.61404 40993 ft 523 kts 117°
2026-04-25 06:41 34.48751 101.69177 40997 ft 522 kts 117°
2026-04-25 06:41 34.45362 101.76954 41002 ft 524 kts 117°
2026-04-25 06:42 34.41954 101.84752 41001 ft 526 kts 117°
2026-04-25 06:42 34.38532 101.92570 41004 ft 527 kts 117°
2026-04-25 06:43 34.35097 102.00396 41006 ft 527 kts 117°
2026-04-25 06:43 34.31667 102.08197 41020 ft 524 kts 117°
2026-04-25 06:44 34.28245 102.15954 41019 ft 523 kts 117°
2026-04-25 06:44 34.24832 102.23682 41022 ft 522 kts 117°
2026-04-25 06:45 34.21405 102.31419 41016 ft 524 kts 117°
2026-04-25 06:45 34.17969 102.39178 41021 ft 525 kts 117°
2026-04-25 06:46 34.14664 102.47051 41019 ft 528 kts 116°
2026-04-25 06:46 34.11280 102.54906 41024 ft 529 kts 117°
2026-04-25 06:47 34.07926 102.62753 40995 ft 526 kts 116°
2026-04-25 06:47 34.04576 102.70550 41000 ft 525 kts 117°
2026-04-25 06:48 34.01214 102.78348 41017 ft 524 kts 116°
2026-04-25 06:48 33.97858 102.86140 41004 ft 525 kts 116°
2026-04-25 06:49 33.94481 102.93937 40996 ft 526 kts 116°
2026-04-25 06:49 33.91103 103.01739 40998 ft 527 kts 116°
2026-04-25 06:50 33.87710 103.09542 40988 ft 527 kts 116°
2026-04-25 06:50 33.84320 103.17329 40991 ft 527 kts 116°
2026-04-25 06:51 33.80919 103.25125 40990 ft 527 kts 116°
2026-04-25 06:51 33.77513 103.32913 40991 ft 528 kts 116°
2026-04-25 06:52 33.74092 103.40716 40976 ft 529 kts 116°
2026-04-25 06:52 33.70668 103.48511 40977 ft 529 kts 117°
2026-04-25 06:53 33.67236 103.56304 40991 ft 528 kts 116°
2026-04-25 06:53 33.63811 103.64067 40981 ft 526 kts 116°
2026-04-25 06:54 33.60398 103.71787 40995 ft 527 kts 117°
2026-04-25 06:54 33.56944 103.79577 40994 ft 531 kts 117°
2026-04-25 06:55 33.53488 103.87352 40980 ft 528 kts 116°
2026-04-25 06:55 33.50044 103.95092 40989 ft 526 kts 116°
2026-04-25 06:56 33.46601 104.02814 41001 ft 528 kts 117°
2026-04-25 06:56 33.43136 104.10555 41009 ft 529 kts 116°
2026-04-25 06:57 33.39672 104.18287 40999 ft 527 kts 117°
2026-04-25 06:57 33.35261 104.25271 41009 ft 530 kts 136°
2026-04-25 06:58 33.29363 104.30436 40993 ft 526 kts 154°
2026-04-25 06:58 33.22735 104.34042 41010 ft 523 kts 158°
2026-04-25 06:59 33.16111 104.37601 41016 ft 523 kts 158°
2026-04-25 06:59 33.09456 104.41147 41016 ft 526 kts 158°
2026-04-25 07:00 33.02773 104.44719 41029 ft 528 kts 158°
2026-04-25 07:00 32.96092 104.48272 41029 ft 526 kts 158°
2026-04-25 07:01 32.89446 104.51808 41017 ft 523 kts 158°
2026-04-25 07:01 32.82821 104.55323 41013 ft 522 kts 159°
2026-04-25 07:02 32.76075 104.58298 41017 ft 516 kts 171°
2026-04-25 07:02 32.69014 104.59134 41042 ft 510 kts 182°
2026-04-25 07:03 32.61927 104.59444 41038 ft 511 kts 182°
2026-04-25 07:03 32.54845 104.59765 41036 ft 511 kts 182°
2026-04-25 07:04 32.47737 104.60091 41040 ft 512 kts 182°
2026-04-25 07:04 32.40648 104.60418 41042 ft 511 kts 182°
2026-04-25 07:05 32.33560 104.60802 41047 ft 511 kts 181°
2026-04-25 07:05 32.26475 104.61201 41048 ft 510 kts 182°
2026-04-25 07:06 32.19388 104.61574 41050 ft 510 kts 182°
2026-04-25 07:06 32.12310 104.61972 41045 ft 511 kts 182°
2026-04-25 07:07 32.05219 104.62356 41049 ft 512 kts 182°
2026-04-25 07:07 31.98113 104.62742 41042 ft 512 kts 182°
2026-04-25 07:08 31.91029 104.63127 41039 ft 511 kts 182°
2026-04-25 07:08 31.83943 104.63509 41022 ft 511 kts 182°
2026-04-25 07:09 31.76863 104.63895 41041 ft 510 kts 182°
2026-04-25 07:09 31.69819 104.64155 41025 ft 507 kts 184°
2026-04-25 07:10 31.62777 104.64436 41017 ft 507 kts 182°
2026-04-25 07:10 31.55753 104.64720 41010 ft 505 kts 183°
2026-04-25 07:11 31.48734 104.64990 40992 ft 506 kts 183°
2026-04-25 07:11 31.41701 104.65275 41006 ft 506 kts 183°
2026-04-25 07:12 31.34674 104.65546 41007 ft 507 kts 183°
2026-04-25 07:12 31.24114 104.65964 41008 ft 507 kts 183°
2026-04-25 07:13 31.17079 104.66241 41008 ft 507 kts 183°
2026-04-25 07:13 31.10043 104.66517 41011 ft 507 kts 183°
2026-04-25 07:14 31.03007 104.66909 41006 ft 509 kts 179°
2026-04-25 07:14 30.95961 104.67726 41011 ft 509 kts 179°
2026-04-25 07:15 30.88940 104.68498 41023 ft 508 kts 180°
2026-04-25 07:15 30.81925 104.69296 41021 ft 507 kts 179°
2026-04-25 07:16 30.74933 104.70083 41020 ft 505 kts 180°
2026-04-25 07:16 30.67955 104.70869 41020 ft 505 kts 179°
2026-04-25 07:17 30.60970 104.71655 41029 ft 505 kts 180°
2026-04-25 07:17 30.53997 104.72438 41033 ft 504 kts 180°
2026-04-25 07:18 30.47023 104.73214 41031 ft 504 kts 180°
2026-04-25 07:18 30.40067 104.73990 41036 ft 503 kts 180°
2026-04-25 07:19 30.33110 104.74763 41035 ft 503 kts 180°
2026-04-25 07:19 30.26143 104.75536 41039 ft 505 kts 180°
2026-04-25 07:20 30.19143 104.76314 41040 ft 507 kts 180°
2026-04-25 07:20 30.12129 104.77090 41027 ft 508 kts 180°
2026-04-25 07:21 30.05113 104.77867 41032 ft 507 kts 180°
2026-04-25 07:21 29.98115 104.78640 41028 ft 505 kts 180°
2026-04-25 07:22 29.91136 104.79412 41026 ft 504 kts 180°
2026-04-25 07:22 29.84181 104.80179 41025 ft 503 kts 180°
2026-04-25 07:23 29.77217 104.80946 41026 ft 505 kts 180°
2026-04-25 07:23 29.70205 104.81718 41028 ft 509 kts 180°
2026-04-25 07:24 29.63178 104.82491 41021 ft 509 kts 180°
2026-04-25 07:24 29.56141 104.83263 41019 ft 507 kts 180°
2026-04-25 07:25 29.49139 104.84031 41013 ft 505 kts 180°
2026-04-25 07:25 29.42169 104.84793 41006 ft 504 kts 180°
2026-04-25 07:26 29.35206 104.85663 41001 ft 508 kts 174°
2026-04-25 07:26 29.28448 104.88252 41007 ft 519 kts 160°
2026-04-25 07:27 29.21848 104.91599 41006 ft 519 kts 160°
2026-04-25 07:27 29.15243 104.94919 41005 ft 520 kts 160°
2026-04-25 07:28 29.08643 104.98254 40997 ft 520 kts 160°
2026-04-25 07:28 29.02031 105.01594 40998 ft 521 kts 160°
2026-04-25 07:29 28.95419 105.04926 40990 ft 520 kts 160°
2026-04-25 07:29 28.88825 105.08232 40990 ft 518 kts 161°
2026-04-25 07:30 28.82249 105.11515 40980 ft 516 kts 161°
2026-04-25 07:30 28.75762 105.14958 40988 ft 517 kts 156°
2026-04-25 07:31 28.69409 105.18831 40989 ft 520 kts 156°
2026-04-25 07:31 28.63026 105.22680 40984 ft 520 kts 156°
2026-04-25 07:32 28.56659 105.26539 40976 ft 518 kts 156°
2026-04-25 07:32 28.50324 105.30356 40984 ft 516 kts 156°
2026-04-25 07:33 28.43986 105.34179 40984 ft 518 kts 156°
2026-04-25 07:33 28.37616 105.38013 40993 ft 520 kts 156°
2026-04-25 07:34 28.31241 105.41847 40988 ft 519 kts 156°
2026-04-25 07:34 28.24862 105.45674 40987 ft 520 kts 156°
2026-04-25 07:35 28.18488 105.49496 40997 ft 518 kts 156°
2026-04-25 07:35 28.12129 105.53303 41013 ft 517 kts 156°
2026-04-25 07:36 28.05701 105.56787 41005 ft 509 kts 166°
2026-04-25 07:36 27.98894 105.58417 41048 ft 497 kts 178°
2026-04-25 07:37 27.92044 105.59500 41041 ft 498 kts 178°
2026-04-25 07:37 27.85190 105.60572 41050 ft 500 kts 178°
2026-04-25 07:38 27.78397 105.62507 41051 ft 513 kts 163°
2026-04-25 07:38 27.71993 105.66218 41081 ft 521 kts 156°
2026-04-25 07:39 27.65586 105.69967 41077 ft 518 kts 159°
2026-04-25 07:39 27.59102 105.73446 41090 ft 514 kts 159°
2026-04-25 07:40 27.52681 105.76932 41081 ft 513 kts 159°
2026-04-25 07:40 27.46240 105.80399 41102 ft 516 kts 160°
2026-04-25 07:41 27.39752 105.83900 41101 ft 519 kts 159°
2026-04-25 07:41 27.33258 105.87396 41114 ft 518 kts 160°
2026-04-25 07:42 27.26779 105.90878 41118 ft 517 kts 160°
2026-04-25 07:42 27.20307 105.94354 41115 ft 516 kts 160°
2026-04-25 07:43 27.13837 105.97820 41112 ft 517 kts 160°
2026-04-25 07:43 27.07424 106.01445 41123 ft 523 kts 153°
2026-04-25 07:44 27.01806 106.06703 41123 ft 534 kts 135°
2026-04-25 07:44 26.97242 106.13301 41131 ft 538 kts 129°
2026-04-25 07:45 26.92736 106.19978 41143 ft 539 kts 129°
2026-04-25 07:45 26.88223 106.26670 41145 ft 539 kts 129°
2026-04-25 07:46 26.83715 106.33340 41144 ft 537 kts 129°
2026-04-25 07:46 26.79215 106.39987 41152 ft 536 kts 129°
2026-04-25 07:47 26.74725 106.46612 41155 ft 534 kts 130°
2026-04-25 07:47 26.70243 106.53212 41168 ft 534 kts 130°
2026-04-25 07:48 26.65747 106.59826 41175 ft 537 kts 130°
2026-04-25 07:48 26.61222 106.66472 41180 ft 538 kts 130°
2026-04-25 07:49 26.56702 106.73102 41176 ft 539 kts 130°
2026-04-25 07:49 26.52560 106.80064 41172 ft 543 kts 117°
2026-04-25 07:50 26.50030 106.88000 41205 ft 544 kts 107°
2026-04-25 07:50 26.47844 106.96060 41207 ft 544 kts 107°
2026-04-25 07:51 26.45644 107.04133 41209 ft 544 kts 107°
2026-04-25 07:51 26.43522 107.12225 41196 ft 544 kts 106°
2026-04-25 07:52 26.41412 107.20293 41175 ft 542 kts 107°
2026-04-25 07:52 26.39284 107.28328 41184 ft 539 kts 106°
2026-04-25 07:53 26.37185 107.36322 41175 ft 538 kts 107°
2026-04-25 07:53 26.35055 107.44328 41185 ft 541 kts 107°
2026-04-25 07:54 26.32928 107.52382 41185 ft 545 kts 107°
2026-04-25 07:54 26.30770 107.60465 41186 ft 544 kts 107°
2026-04-25 07:55 26.28630 107.68512 41170 ft 542 kts 107°
2026-04-25 07:55 26.26485 107.76524 41167 ft 540 kts 107°
2026-04-25 07:56 26.24339 107.84543 41164 ft 543 kts 107°
2026-04-25 07:56 26.22184 107.92595 41176 ft 545 kts 107°
2026-04-25 07:57 26.20076 108.00681 41150 ft 544 kts 106°
2026-04-25 07:57 26.17910 108.08748 41171 ft 545 kts 107°
2026-04-25 07:58 26.15787 108.16820 41157 ft 544 kts 106°
2026-04-25 07:58 26.13638 108.24843 41144 ft 541 kts 107°
2026-04-25 07:59 26.11507 108.32855 41172 ft 541 kts 107°
2026-04-25 07:59 26.09358 108.40870 41167 ft 542 kts 107°
2026-04-25 08:00 26.07244 108.48903 41156 ft 543 kts 107°
2026-04-25 08:00 26.05107 108.56959 41160 ft 545 kts 107°
2026-04-25 08:01 26.02964 108.65027 41154 ft 545 kts 107°
2026-04-25 08:01 26.00820 108.73096 41148 ft 545 kts 107°
2026-04-25 08:02 25.98678 108.81180 41143 ft 546 kts 107°
2026-04-25 08:02 25.96545 108.89254 41142 ft 547 kts 107°
2026-04-25 08:03 25.94388 108.97350 41148 ft 547 kts 107°
2026-04-25 08:03 25.92239 109.05436 41138 ft 545 kts 107°
2026-04-25 08:04 25.90145 109.13492 41137 ft 544 kts 107°
2026-04-25 08:04 25.88049 109.21529 41132 ft 542 kts 107°
2026-04-25 08:05 25.85941 109.29564 41125 ft 544 kts 107°
2026-04-25 08:05 25.83831 109.37629 41109 ft 547 kts 107°
2026-04-25 08:06 25.81697 109.45721 41115 ft 547 kts 107°
2026-04-25 08:06 25.79565 109.53803 41107 ft 546 kts 108°
2026-04-25 08:07 25.76347 109.61347 41102 ft 540 kts 127°
2026-04-25 08:07 25.71500 109.67545 41112 ft 530 kts 141°
2026-04-25 08:08 25.66160 109.73172 41116 ft 532 kts 141°
2026-04-25 08:08 25.60818 109.78834 41115 ft 531 kts 141°
2026-04-25 08:09 25.55472 109.84463 41120 ft 531 kts 142°
2026-04-25 08:09 25.50151 109.90077 41109 ft 530 kts 141°
2026-04-25 08:10 25.44811 109.95690 41125 ft 530 kts 142°
2026-04-25 08:10 25.39466 110.01316 41109 ft 533 kts 142°
2026-04-25 08:11 25.34102 110.06942 41127 ft 533 kts 141°
2026-04-25 08:11 25.28734 110.12575 41096 ft 533 kts 142°
2026-04-25 08:12 25.23369 110.18191 41096 ft 532 kts 142°
2026-04-25 08:12 25.18009 110.23808 41095 ft 532 kts 141°
2026-04-25 08:13 25.12705 110.29460 41098 ft 531 kts 141°
2026-04-25 08:14 25.04715 110.37882 41117 ft 532 kts 141°
2026-04-25 08:14 24.99368 110.43539 41117 ft 534 kts 142°
2026-04-25 08:15 24.94017 110.49200 41126 ft 535 kts 141°
2026-04-25 08:15 24.88663 110.54855 41117 ft 535 kts 142°
2026-04-25 08:16 24.83298 110.60514 41116 ft 536 kts 141°
2026-04-25 08:16 24.77910 110.66194 41108 ft 536 kts 141°
2026-04-25 08:17 24.72618 110.71947 41101 ft 541 kts 135°
2026-04-25 08:17 24.68530 110.78925 41105 ft 550 kts 117°
2026-04-25 08:18 24.66280 110.86966 41102 ft 554 kts 99°
2026-04-25 08:18 24.65513 110.95363 41118 ft 555 kts 94°
2026-04-25 08:19 24.64792 111.03818 41119 ft 555 kts 95°
2026-04-25 08:19 24.64072 111.12228 41119 ft 554 kts 95°
2026-04-25 08:20 24.63348 111.20647 41113 ft 555 kts 95°
2026-04-25 08:20 24.62615 111.29073 41120 ft 556 kts 95°
2026-04-25 08:21 24.61869 111.37518 41119 ft 557 kts 95°
2026-04-25 08:21 24.61105 111.45960 41118 ft 556 kts 95°
2026-04-25 08:22 24.60349 111.54396 41111 ft 555 kts 95°
2026-04-25 08:22 24.59579 111.62812 41112 ft 555 kts 95°
2026-04-25 08:23 24.58812 111.71241 41115 ft 556 kts 95°
2026-04-25 08:23 24.58036 111.79655 41117 ft 555 kts 95°
2026-04-25 08:24 24.57257 111.88079 41113 ft 555 kts 95°
2026-04-25 08:24 24.56473 111.96495 41117 ft 556 kts 95°
2026-04-25 08:25 24.55682 112.04937 41115 ft 557 kts 95°
2026-04-25 08:25 24.54886 112.13383 41109 ft 557 kts 96°
2026-04-25 08:26 24.54081 112.21830 41099 ft 555 kts 96°
2026-04-25 08:26 24.53284 112.30261 41109 ft 557 kts 96°
2026-04-25 08:27 24.52469 112.38691 41119 ft 555 kts 96°
2026-04-25 08:27 24.51663 112.47074 41104 ft 551 kts 96°
2026-04-25 08:28 24.50848 112.55448 41105 ft 554 kts 96°
2026-04-25 08:28 24.50027 112.63865 41110 ft 558 kts 96°
2026-04-25 08:29 24.49196 112.72320 41110 ft 557 kts 96°
2026-04-25 08:29 24.48369 112.80724 41115 ft 554 kts 96°
2026-04-25 08:30 24.47540 112.89124 40945 ft 556 kts 96°
2026-04-25 08:30 24.47118 112.93344 40228 ft 557 kts 96°
2026-04-25 08:30 24.46617 112.97533 39494 ft 552 kts 101°
2026-04-25 08:30 24.45615 113.01546 38809 ft 543 kts 111°
2026-04-25 08:31 24.44068 113.05263 38161 ft 530 kts 122°
2026-04-25 08:31 24.42051 113.08550 37670 ft 512 kts 133°
2026-04-25 08:31 24.39651 113.11334 37147 ft 496 kts 144°
2026-04-25 08:31 24.36936 113.13557 36696 ft 484 kts 155°
2026-04-25 08:32 24.33949 113.15194 36271 ft 481 kts 166°
2026-04-25 08:32 24.30749 113.16213 35871 ft 477 kts 176°
2026-04-25 08:32 24.27481 113.16578 35497 ft 469 kts 187°
2026-04-25 08:32 24.24281 113.16296 35130 ft 457 kts 197°
2026-04-25 08:33 24.21269 113.15394 34778 ft 444 kts 207°
2026-04-25 08:33 24.18491 113.14002 34451 ft 437 kts 213°
2026-04-25 08:33 24.15799 113.12483 34147 ft 437 kts 213°
2026-04-25 08:33 24.13069 113.11027 33814 ft 441 kts 211°
2026-04-25 08:34 24.10225 113.09719 33445 ft 449 kts 207°
2026-04-25 08:34 24.07237 113.08599 33104 ft 458 kts 203°
2026-04-25 08:34 24.04133 113.07725 32766 ft 465 kts 198°
2026-04-25 08:34 24.00926 113.07153 32443 ft 471 kts 192°
2026-04-25 08:35 23.97627 113.07082 32115 ft 479 kts 183°
2026-04-25 08:35 23.94307 113.07416 31811 ft 482 kts 179°
2026-04-25 08:35 23.90987 113.07898 31519 ft 482 kts 177°
2026-04-25 08:35 23.87667 113.08300 31228 ft 480 kts 181°
2026-04-25 08:36 23.84332 113.08441 30955 ft 479 kts 184°
2026-04-25 08:36 23.81004 113.08508 30664 ft 481 kts 182°
2026-04-25 08:36 23.77662 113.08754 30377 ft 485 kts 176°
2026-04-25 08:36 23.74425 113.09859 30028 ft 497 kts 157°
2026-04-25 08:37 23.71599 113.12022 29664 ft 500 kts 142°
2026-04-25 08:37 23.69121 113.14670 29356 ft 497 kts 135°
2026-04-25 08:37 23.66859 113.17493 29050 ft 494 kts 135°
2026-04-25 08:37 23.64192 113.19774 28662 ft 486 kts 155°
2026-04-25 08:38 23.61066 113.21003 28335 ft 473 kts 170°
2026-04-25 08:38 23.57864 113.21644 28057 ft 464 kts 177°
2026-04-25 08:38 23.54680 113.21868 27767 ft 456 kts 185°
2026-04-25 08:38 23.51586 113.21520 27475 ft 439 kts 195°
2026-04-25 08:39 23.48749 113.20796 27195 ft 416 kts 200°
2026-04-25 08:39 23.46015 113.19952 26888 ft 391 kts 201°
2026-04-25 08:39 23.43451 113.19229 26559 ft 372 kts 198°
2026-04-25 08:39 23.40961 113.18748 26230 ft 357 kts 194°
2026-04-25 08:40 23.38581 113.18336 25889 ft 341 kts 196°
2026-04-25 08:40 23.36296 113.17848 25541 ft 328 kts 198°
2026-04-25 08:40 23.34146 113.17357 25200 ft 318 kts 198°
2026-04-25 08:40 23.31958 113.16891 24847 ft 310 kts 197°
2026-04-25 08:41 23.29869 113.16464 24497 ft 303 kts 197°
2026-04-25 08:41 23.27827 113.16037 24150 ft 296 kts 198°
2026-04-25 08:41 23.25839 113.15614 23804 ft 291 kts 198°
2026-04-25 08:41 23.23869 113.15198 23443 ft 286 kts 198°
2026-04-25 08:42 23.21931 113.14790 23018 ft 282 kts 197°
2026-04-25 08:42 23.20016 113.14386 22615 ft 279 kts 198°
2026-04-25 08:42 23.18141 113.13894 22205 ft 277 kts 200°
2026-04-25 08:42 23.16273 113.13383 21821 ft 277 kts 200°
2026-04-25 08:43 23.14401 113.12882 21446 ft 278 kts 200°
2026-04-25 08:43 23.12522 113.12382 21072 ft 279 kts 200°
2026-04-25 08:43 23.10644 113.11878 20709 ft 279 kts 200°
2026-04-25 08:43 23.08763 113.11374 20353 ft 279 kts 200°
2026-04-25 08:44 23.06881 113.10869 20004 ft 279 kts 200°
2026-04-25 08:44 23.05013 113.10369 19672 ft 279 kts 200°
2026-04-25 08:44 23.03120 113.09862 19329 ft 279 kts 200°
2026-04-25 08:44 23.01242 113.09359 19001 ft 278 kts 200°
2026-04-25 08:45 22.99328 113.09022 18649 ft 285 kts 185°
2026-04-25 08:45 22.97365 113.09481 18308 ft 295 kts 161°
2026-04-25 08:45 22.95667 113.10724 17909 ft 300 kts 137°
2026-04-25 08:45 22.94525 113.12607 17497 ft 301 kts 112°
2026-04-25 08:46 22.94137 113.14806 17104 ft 297 kts 88°
2026-04-25 08:46 22.94529 113.16934 16714 ft 289 kts 64°
2026-04-25 08:46 22.95589 113.18718 16344 ft 278 kts 41°
2026-04-25 08:46 22.97038 113.19925 15653 ft 239 kts 25°
2026-04-25 08:47 22.98569 113.20498 13503 ft 238 kts
2026-04-25 08:47 23.00182 113.20852 11527 ft 234 kts 10°
2026-04-25 08:47 23.01736 113.21270 9710 ft 228 kts 12°
2026-04-25 08:47 23.03279 113.21702 7957 ft 247 kts 13°
2026-04-25 08:48 23.04929 113.22145 7818 ft 226 kts 13°
2026-04-25 08:48 23.06312 113.22520 6529 ft 201 kts 13°
2026-04-25 08:48 23.07780 113.22909 5087 ft 236 kts 14°
2026-04-25 08:48 23.09345 113.23329 4951 ft 225 kts 14°
2026-04-25 08:49 23.10822 113.23727 4938 ft 215 kts 14°
2026-04-25 08:49 23.12274 113.24117 4857 ft 218 kts 14°
2026-04-25 08:49 23.13774 113.24521 4619 ft 226 kts 14°
2026-04-25 08:49 23.15304 113.24933 4328 ft 226 kts 14°
2026-04-25 08:50 23.16820 113.25340 4031 ft 224 kts 14°
2026-04-25 08:50 23.18318 113.25744 3738 ft 221 kts 14°
2026-04-25 08:50 23.19808 113.26146 3447 ft 220 kts 14°
2026-04-25 08:50 23.21287 113.26543 3141 ft 220 kts 14°
2026-04-25 08:51 23.22765 113.26942 2847 ft 218 kts 14°
2026-04-25 08:51 23.24230 113.27338 2562 ft 217 kts 14°
2026-04-25 08:51 23.25691 113.27745 2266 ft 214 kts 14°
2026-04-25 08:51 23.27057 113.28104 1988 ft 189 kts 14°
2026-04-25 08:52 23.28249 113.28431 1743 ft 166 kts 15°
2026-04-25 08:52 23.29326 113.28714 1564 ft 153 kts 13°
2026-04-25 08:52 23.30336 113.28989 1358 ft 145 kts 16°
2026-04-25 08:52 23.31282 113.29247 1203 ft 129 kts 14°
2026-04-25 08:53 23.32128 113.29470 1016 ft 129 kts 14°
2026-04-25 08:53 23.33034 113.29716 861 ft 138 kts 14°
2026-04-25 08:53 23.33973 113.29970 681 ft 141 kts 14°
2026-04-25 08:53 23.34929 113.30227 497 ft 142 kts 14°
2026-04-25 08:54 23.35883 113.30484 309 ft 141 kts 15°
2026-04-25 08:54 23.36804 113.30730 137 ft 139 kts 14°
2026-04-25 08:54 23.37681 113.30947 53 ft 110 kts 16°
2026-04-25 08:54 23.38232 113.31114 48 ft 55 kts 14°
2026-04-25 08:55 23.38457 113.31177 51 ft 25 kts 14°
2026-04-25 08:55 23.38550 113.31200 48 ft 8 kts
2026-04-25 08:55 23.38596 113.31206 51 ft 9 kts
2026-04-25 08:55 23.38715 113.31194 52 ft 24 kts 342°
2026-04-25 08:56 23.38871 113.31151 52 ft 22 kts 346°
2026-04-25 08:56 23.39026 113.31128 53 ft 18 kts 15°
2026-04-25 08:56 23.39102 113.31150 49 ft 14 kts 15°
2026-04-25 08:56 23.39209 113.31182 53 ft 18 kts 15°
2026-04-25 08:57 23.39348 113.31216 50 ft 23 kts 14°
2026-04-25 08:57 23.39516 113.31263 53 ft 27 kts 15°
2026-04-25 08:57 23.39707 113.31313 53 ft 23 kts 13°
2026-04-25 08:57 23.39877 113.31359 48 ft 27 kts 14°
2026-04-25 08:58 23.40073 113.31412 52 ft 31 kts 14°
2026-04-25 08:58 23.40271 113.31465 53 ft 11 kts 14°
2026-04-25 08:58 23.40331 113.31413 53 ft 15 kts 283°
2026-04-25 08:58 23.40362 113.31277 47 ft 22 kts 284°
2026-04-25 08:59 23.40395 113.31131 53 ft 3 kts 284°
2026-04-25 08:59 23.40398 113.31121 53 ft 0 kts 284°
2026-04-25 08:59 23.40406 113.31082 50 ft 13 kts 284°
2026-04-25 08:59 23.40438 113.31006 53 ft 4 kts
2026-04-25 09:00 23.40482 113.31019 53 ft 10 kts 13°
2026-04-25 09:00 23.40542 113.31020 53 ft 8 kts 319°
2026-04-25 09:00 23.40540 113.30977 53 ft 6 kts 267°
2026-04-25 09:00 23.40550 113.30934 50 ft 3 kts 284°
2026-04-25 09:01 23.40553 113.30921 53 ft 0 kts 284°
2026-04-25 09:01 23.40553 113.30919 53 ft 0 kts 284°
2026-04-25 09:01 23.40553 113.30920 53 ft 0 kts 284°